Other Public Products
Issued by NWS Grand Forks, ND

Home | Current Version | Previous Version | Graphics & Text | Print | Product List | Glossary On
Versions: 1 2 3 4 5 6 7 8 9 10 11 12 13 14 15 16 17 18 19 20 21 22 23 24 25 26 27 28 29 30 31 32 33 34 35 36 37 38 39 40 41 42 43 44 45 46 47 48 49 50
000
FPUS83 KFGF 201331
OPUFGF
PRAIRIE TO PINES WEATHER ROUNDUP
NATIONAL WEATHER SERVICE EASTERN NORTH DAKOTA/GRAND FORKS ND
700 AM CST SAT DEC 20 2014

 **SATELLITE DATA USED TO AUGMENT SKY COVER AT AUTOMATED STATIONS**
 *****  WEATHER ACROSS EASTERN NORTH DAKOTA  *****

CITY           SKY/WX    TMP DP  RH WIND       PRES   REMARKS
GRAND FORKS    CLOUDY    28  26  92 SW9       30.00R WCI  19
GRAND FORKS AF CLOUDY    27  27 100 SW7       29.99S WCI  19
GRAND CITY NWS   N/A     27 N/A N/A S7          N/A  WCI  19
BUXTON           N/A     28  28  99 S6          N/A  WCI  22
DEVILS LAKE    CLOUDY    21  16  79 S3        29.95R
FARGO          CLOUDY    30  27  88 S12       30.02S WCI  20
WAHPETON ARPT  CLOUDY    30  28  93 S8        30.04R WCI  23
$$

 *****  WEATHER ACROSS CENTRAL AND WESTERN NORTH DAKOTA  *****

CITY           SKY/WX    TMP DP  RH WIND       PRES   REMARKS
JAMESTOWN      CLOUDY    19  15  84 S9        29.96S FOG     WCI   8
BISMARCK       FOG       16  14  92 E6        29.93F VSB 1   WCI   7
MINOT          FOG       23  21  92 SE8       29.89F VSB 1/4 WCI  14
MINOT AFB      FRZ DRZL  22  22 100 SE3       29.89S VSB 1/2
GARRISON         N/A     20  17  88 SE6       29.89S WCI  12
WILLISTON      CLOUDY    19  17  92 CALM      29.84S
DICKINSON      CLOUDY    30  25  81 S6        29.82S WCI  24
HETTINGER      CLOUDY    30  24  78 CALM      29.87R
$$

 *****  OTHER OBSERVATIONS NORTHEAST NORTH DAKOTA  *****

CITY           SKY/WX    TMP DP  RH WIND       PRES   REMARKS
WALHALLA         N/A     25  25 100 SW5       29.98F WCI  19
LANGDON        CLOUDY    25  23  93 SW7       29.94S FOG     WCI  17
CAVALIER       CLOUDY    27  27 100 CALM      29.98S FOG
GRAFTON        NOT AVBL
CANDO          CLOUDY    23  21  93 SW3       29.96S FOG
FORT TOTTEN      N/A     21  20  95 SW2       29.95
ROLLA          FOG       21  21 100 S9        29.93F VSB 3/4 WCI  11
RUGBY          FOG       23  23 100 SE5       29.93S VSB 1/2 WCI  17
 ***** THE ABOVE OBSERVATIONS ARE NON NWS ARE NOT QUALITY
        CONTROLLED AND MAY MIS-REPORT RAIN FOR SNOW...
$$

 *****  OTHER OBSERVATIONS SOUTHEAST NORTH DAKOTA *****

CITY           SKY/WX    TMP DP  RH WIND       PRES   REMARKS
COOPERSTOWN    NOT AVBL
VALLEY CITY    FOG       23  23 100 S10       29.98S VSB 1/4 WCI  12
OAKES          FOG       27  27 100 S13       30.00R VSB 1/2 WCI  16
GWINNER        CLOUDY    30  30 100 MISG      30.01S
BUFFALO        NOT AVBL
WYNDMERE         N/A     28  28 100 S7          N/A  WCI  21
 ***** THE ABOVE OBSERVATIONS ARE NON NWS ARE NOT QUALITY
       CONTROLLED AND MAY MIS-REPORT RAIN FOR SNOW...
$$

  *****  WEATHER ACROSS NORTHERN MINNESOTA  *****

CITY           SKY/WX    TMP DP  RH WIND       PRES   REMARKS
FLAG ISLAND    CLOUDY    27  25  93 S10       30.00F FOG     WCI  17
WARROAD        CLOUDY    27  25  93 SE7       30.01F FOG     WCI  19
ROSEAU         CLOUDY    28  25  86 SE6       30.00S HAZE    WCI  22
HALLOCK        CLOUDY    28  27  93 CALM      29.98S
THF RVR FALLS  CLOUDY    28  28 100 S7        30.00S WCI  21
HALSTAD          N/A     29  27  90 S9          N/A  WCI  21
FOSSTON        CLOUDY    27  27 100 S9        30.01S FOG     WCI  17
BAUDETTE       CLOUDY    27  26  96 S3        30.02S FOG
WASKISH        CLOUDY    28  28 100 CALM      30.03S FOG
CROOKSTON      CLOUDY    28  28 100 S7        30.02R FOG     WCI  21
$$
  *****  WEATHER ACROSS CENTRAL AND WEST MINNESOTA  *****

CITY           SKY/WX    TMP DP  RH WIND       PRES   REMARKS
BEMIDJI          N/A     29  28  96 S7        30.02R FOG     WCI  22
PARK RAPIDS    CLOUDY    30  28  92 S12       30.02S FOG     WCI  20
WADENA         CLOUDY    28  27  93 S8        30.04S FOG     WCI  20
DETROIT LAKES  CLOUDY    30  30 100 S10       30.02S FOG     WCI  21
MOORHEAD       CLOUDY    30  30 100 S7        30.04R WCI  23
FERGUS FALLS   CLOUDY    28  28 100 S12       30.06S FOG     WCI  18
ELBOW LAKE     CLOUDY    28  28  98 S15       30.04S FOG     WCI  17
MORRIS MN      CLOUDY    30  28  93 S10       30.04S FOG     WCI  21
STAPLES        CLOUDY    28  28 100 S13       30.06S FOG     WCI  18
WHEATON        CLOUDY    28  27  93 S7        30.07R WCI  21
$$
  *****  WEATHER ELSEWHERE ACROSS MINNESOTA  *****

CITY           SKY/WX    TMP DP  RH WIND       PRES   REMARKS
DULUTH         LGT SNOW  26  23  88 S7        30.11S FOG     WCI  18
INTRNTL FALLS  LGT SNOW  26  24  92 VRB5      30.05R FOG     WCI  20
ELY            LGT SNOW  25  25 100 S5        30.10S WCI  19
CLOQUET        CLOUDY    27  25  93 SE3       30.12R FOG
BRAINERD       CLOUDY    30  28  92 S9        30.08S FOG     WCI  22
HIBBING        LGT SNOW  27  23  85 S5        30.08S FOG     WCI  22
ALEXANDRIA     CLOUDY    29  27  92 S9        30.05F FOG     WCI  20
SAINT CLOUD    CLOUDY    32  29  88 S10       30.11S FOG     WCI  24
MINNEAPOLIS    CLOUDY    30  25  81 S7        30.16S HAZE    WCI  23
$$

  *****  WEATHER ACROSS SOUTH DAKOTA  *****

CITY           SKY/WX    TMP DP  RH WIND       PRES   REMARKS
SIOUX FALLS    CLOUDY    31  29  92 S7        30.06R FOG     WCI  24
BROOKINGS      NOT AVBL
WATERTOWN      CLOUDY    28  26  92 S12       30.01R FOG     WCI  18
HURON          FOG       25  24  96 S8        30.03R VSB 1   WCI  16
SISSETON         N/A     30  28  92 SW8       30.02R WCI  22
ABERDEEN       FOG       26  25  96 S10       30.01S VSB 3/4 WCI  16
MITCHELL       FOG       28  27  96 S7        30.05R VSB 1/2 WCI  21
PIERRE         FOG       20  17  88 SE5       29.96R VSB 1/4 WCI  13
MOBRIDGE       PTCLDY    19  16  88 SE9       29.90F WCI   8
RAPID CITY     CLOUDY    36  23  59 NW9       29.89R
$$

  *****  SOME WEATHER IN NEARBY STATES *****

CITY           SKY/WX    TMP DP  RH WIND       PRES   REMARKS
GLASGOW MT     CLEAR     23  21  92 E5        29.81S WCI  17
GREAT FALLS MT CLEAR     32  22  66 SW16      29.86R WCI  21
CHEYENNE WY    CLOUDY    36  17  46 W20G26    29.95R
SCOTTSBLUFF NE PTCLDY    13   9  84 E5        29.96S WCI   5
OMAHA NE       DRIZZLE   32  32 100 S9        30.12R FOG     WCI  24
DES MOINES IA  CLOUDY    32  28  85 S3        30.17S
DAVENPORT IA   CLOUDY    29  23  78 SE7       30.24S WCI  22
CHICAGO IL     CLOUDY    29  23  78 CALM      30.27S
EAU CLAIRE WI  CLOUDY    28  21  75 SE8       30.18F WCI  20
LA CROSSE WI   CLOUDY    30  24  78 SE6       30.22S WCI  24
$$

  *****  SOME NATIONAL WEATHER *****

CITY           SKY/WX    TMP DP  RH WIND       PRES   REMARKS
LA GUARDIA NY  CLOUDY    31  21  66 N10       30.27S WCI  22
RALEIGH NC     CLOUDY    35  25  66 NE6       30.29S
ATLANTA GA     CLOUDY    44  41  89 NW6       30.18R FOG
NEW ORLEANS LA CLOUDY    50  47  89 N15       30.11R
OKLAHOMA CITY  CLOUDY    40  35  83 SE6       30.21S
ALBUQUERQUE NM PTCLDY    30  23  75 CALM      30.16F
SALT LAKE CITY MOCLDY    38  34  85 CALM      30.10F
LOS ANGELES CA MOCLDY    51  48  89 CALM      30.14F
BOISE ID       CLOUDY    41  34  76 E8        30.00F
SEATTLE WA     CLOUDY    44  40  85 E7        29.70F
$$

*** WEATHER ACROSS MANITOBA...SASKATCHEWAN AND ONTARIO ***
                ***ONTARIO***

CITY           SKY/WX    TMP DP  RH WIND       PRES   REMARKS
GERALDTON      CLOUDY    12  10  92 E2        30.18S
THUNDER BAY    FLURRIES  23  23 100 CALM      30.19S
SIOUX LOOKOUT  FLURRIES  23  21  93 SE3       30.07
TORONTO        MOCLDY    21  19  93 N6        30.30S WCI  14
BIG TROUT LK   CLOUDY    19  18  93 S5        30.12S WCI  13
PICKLE LAKE    FLURRIES  18  16  93 S6        30.09S WCI   9
DRYDEN         CLOUDY    23  23 100 SE7       30.05S WCI  15
KENORA         FOG       23  23 100 SE7       30.02R VSB 1   WCI  15
$$
                *** MANITOBA***

CITY           SKY/WX    TMP DP  RH WIND       PRES   REMARKS
BRANDON        CLOUDY    23  23 100 SE2       29.95S
DAUPHIN        CLOUDY    21  18  86 SE7       29.96F WCI  13
ISLAND LAKE    FLURRIES  19  18  93 SE5       30.05S WCI  13
PILOT MOUND      N/A     23  21  93 S1          N/A
THE PAS        CLOUDY    19  18  93 SE8       29.94F WCI   9
THOMPSON       FLURRIES  16  12  86 S6        30.00  WCI   7
WINNIPEG       FRZ DRZL  27  25  93 SE5       30.00S FOG     WCI  21
LYNN LAKE      LGT SNOW  12  10  92 S9        29.88F WCI   0
CHURCHILL      FLURRIES  10   9  92 SW5       30.03F WCI   2
GILLAM         LGT SNOW  14  10  85 S5        30.05F WCI   6
$$
                ***SASKATCHEWAN***

CITY           SKY/WX    TMP DP  RH WIND       PRES   REMARKS
ESTEVAN        FOG       18  16  93 E9        29.84F VSB 3/8 WCI   6
KINDERSLEY     MOCLDY    23  21  93 W7        29.69R WCI  15
LLOYDMINSTER   CLOUDY    16  14  93 VRB2      29.68S
PRINCE ALBERT  LGT SNOW  16  14  93 E9G18     29.80F FOG     WCI   4
REGINA         CLOUDY    19  19 100 SE16      29.78F FOG     WCI   5
YORKTON        CLOUDY    19  19 100 S9        29.86S WCI   9


USA.gov is the U.S. government's official web portal to all federal, state and local government web resources and services.